GW5727 Weather Reports


time (UTC)temp
C
wind
direction
speed
KPH
gust
KPH
rain 1hr
cm
rain 24hr
cm
rain mn
cm
humidity
%
barometer
mb
20260508023702 9 273 0.0 1.6 0.00 0.00 0.00 62 1013.7
20260508023200 9 247 0.0 0.0 0.00 0.00 0.00 63 1013.7
20260508022655 9 297 3.2 4.8 0.00 0.00 0.00 63 1013.9
20260508022152 10 272 1.6 1.6 0.00 0.00 0.00 65 1013.9
20260508021648 10 259 1.6 3.2 0.00 0.00 0.00 61 1013.8
20260508021144 10 250 0.0 1.6 0.00 0.00 0.00 60 1013.8
20260508020642 10 259 0.0 0.0 0.00 0.00 0.00 60 1013.8
20260508020139 10 249 0.0 1.6 0.00 0.00 0.00 58 1013.6
20260508015636 10 262 0.0 1.6 0.00 0.00 0.00 60 1013.6
20260508015133 10 260 0.0 0.0 0.00 0.00 0.00 60 1013.5
20260508014630 10 266 0.0 0.0 0.00 0.00 0.00 62 1013.8
20260508014126 10 244 0.0 0.0 0.00 0.00 0.00 60 1013.5
20260508013622 10 247 1.6 1.6 0.00 0.00 0.00 58 1013.4
20260508013119 10 261 0.0 0.0 0.00 0.00 0.00 58 1013.4
20260508012617 10 254 0.0 0.0 0.00 0.00 0.00 56 1013.2
20260508012114 11 291 0.0 1.6 0.00 0.00 0.00 56 1013.2
20260508011612 11 271 0.0 0.0 0.00 0.00 0.00 54 1012.9
20260508011109 12 273 0.0 1.6 0.00 0.00 0.00 54 1013.0
20260508010606 12 253 0.0 1.6 0.00 0.00 0.00 52 1012.8
20260508010104 12 277 1.6 1.6 0.00 0.00 0.00 50 1012.8
20260508005600 12 245 0.0 0.0 0.00 0.00 0.00 50 1012.7
20260508005056 12 268 0.0 1.6 0.00 0.00 0.00 51 1012.6
20260508004552 12 232 1.6 1.6 0.00 0.00 0.00 51 1012.7
20260508004049 12 271 1.6 1.6 0.00 0.00 0.00 50 1012.5
20260508003546 12 265 0.0 0.0 0.00 0.00 0.00 55 1012.7
20260508003043 12 164 3.2 3.2 0.00 0.00 0.00 51 1012.4
20260508002539 12 268 0.0 0.0 0.00 0.00 0.00 56 1012.4
20260508002037 12 259 1.6 1.6 0.00 0.00 0.00 55 1012.4
20260508001532 12 301 0.0 1.6 0.00 0.00 0.00 55 1012.5
20260508001029 12 262 1.6 1.6 0.00 0.00 0.00 54 1012.3
20260508000525 12 228 1.6 1.6 0.00 0.00 0.00 53 1012.2
20260508000023 13 236 1.6 3.2 0.00 0.00 0.00 48 1012.2
20260507235519 13 288 0.0 1.6 0.00 0.00 0.00 51 1011.8
20260507235017 13 269 1.6 1.6 0.00 0.00 0.00 50 1012.1
20260507234513 13 268 0.0 0.0 0.00 0.00 0.00 49 1011.6
20260507234009 13 276 1.6 1.6 0.00 0.00 0.00 52 1011.7
20260507233506 14 268 0.0 0.0 0.00 0.00 0.00 50 1011.5
20260507233005 14 276 1.6 1.6 0.00 0.00 0.00 46 1011.7
20260507232501 14 266 0.0 0.0 0.00 0.00 0.00 48 1011.6
20260507231959 14 272 1.6 1.6 0.00 0.00 0.00 48 1011.5
20260507231454 14 272 3.2 4.8 0.00 0.00 0.00 48 1011.3
20260507230951 15 274 3.2 3.2 0.00 0.00 0.00 49 1011.3
20260507230449 15 337 6.4 8.0 0.00 0.00 0.00 45 1011.0
20260507225944 15 267 3.2 3.2 0.00 0.00 0.00 47 1011.2
20260507225440 16 276 0.0 1.6 0.00 0.00 0.00 43 1011.1
20260507224936 15 265 0.0 1.6 0.00 0.00 0.00 45 1011.2
20260507224432 15 277 4.8 4.8 0.00 0.00 0.00 44 1011.1
20260507223929 16 334 1.6 1.6 0.00 0.00 0.00 44 1011.0
20260507223425 16 283 3.2 3.2 0.00 0.00 0.00 42 1011.0
20260507222922 16 258 4.8 4.8 0.00 0.00 0.00 41 1010.8
20260507222419 16 291 3.2 3.2 0.00 0.00 0.00 43 1010.6
20260507221916 16 277 1.6 1.6 0.00 0.00 0.00 45 1010.8
20260507221412 17 288 4.8 4.8 0.00 0.00 0.00 42 1010.5
20260507220908 18 293 4.8 14.5 0.00 0.00 0.00 42 1010.7
20260507220406 17 273 1.6 3.2 0.00 0.00 0.00 41 1010.5
20260507215902 17 230 3.2 4.8 0.00 0.00 0.00 39 1010.4
20260507215359 18 237 3.2 4.8 0.00 0.00 0.00 39 1010.2
20260507214856 18 245 3.2 3.2 0.00 0.00 0.00 41 1010.3
20260507214354 18 165 4.8 8.0 0.00 0.00 0.00 40 1009.9
20260507213849 18 250 0.0 1.6 0.00 0.00 0.00 42 1010.3
20260507213346 18 266 0.0 1.6 0.00 0.00 0.00 42 1010.2
20260507212843 18 289 1.6 3.2 0.00 0.00 0.00 42 1010.1
20260507212339 17 208 3.2 4.8 0.00 0.00 0.00 42 1010.2
20260507211836 18 270 3.2 4.8 0.00 0.00 0.00 39 1010.0
20260507211332 18 303 3.2 3.2 0.00 0.00 0.00 42 1010.2
20260507210829 18 260 4.8 8.0 0.00 0.00 0.00 43 1009.7
20260507210326 19 284 3.2 3.2 0.00 0.00 0.00 44 1009.9
20260507205823 20 315 3.2 3.2 0.00 0.00 0.00 40 1010.2
20260507205320 19 259 1.6 1.6 0.00 0.00 0.00 40 1010.0
20260507204815 19 297 3.2 3.2 0.00 0.00 0.00 42 1010.1
20260507204313 20 282 1.6 3.2 0.00 0.00 0.00 42 1010.0
20260507203811 19 310 0.0 1.6 0.00 0.00 0.00 40 1010.0
20260507203309 19 224 4.8 8.0 0.00 0.00 0.00 39 1010.0
20260507202805 20 215 4.8 8.0 0.00 0.00 0.00 40 1009.9
20260507202301 20 357 3.2 3.2 0.00 0.00 0.00 40 1009.7
20260507201756 20 272 4.8 11.3 0.00 0.00 0.00 39 1009.9
20260507201252 20 205 4.8 4.8 0.00 0.00 0.00 38 1009.9
20260507200749 19 288 4.8 8.0 0.00 0.00 0.00 41 1010.1
20260507200245 19 298 3.2 3.2 0.00 0.00 0.00 44 1010.0
20260507195741 18 305 4.8 4.8 0.00 0.00 0.00 42 1009.9
20260507195239 20 290 3.2 3.2 0.00 0.00 0.00 41 1010.1
20260507194736 20 310 4.8 4.8 0.00 0.00 0.00 39 1010.2
20260507194232 19 201 4.8 4.8 0.00 0.00 0.00 41 1010.2
20260507193729 17 304 1.6 3.2 0.00 0.00 0.00 46 1010.2
20260507193225 17 56 3.2 4.8 0.00 0.00 0.00 46 1010.1
20260507192722 17 270 1.6 1.6 0.00 0.00 0.00 44 1010.4
20260507192219 19 246 6.4 8.0 0.00 0.00 0.00 42 1010.3
20260507191714 18 267 6.4 9.7 0.00 0.00 0.00 43 1010.5
20260507191212 17 299 4.8 4.8 0.00 0.00 0.00 50 1010.6
20260507190708 17 272 3.2 4.8 0.00 0.00 0.00 50 1010.6
20260507190207 18 230 6.4 8.0 0.00 0.00 0.00 43 1010.7
20260507185705 19 269 6.4 9.7 0.00 0.00 0.00 44 1010.5
20260507185202 18 119 3.2 4.8 0.00 0.00 0.00 49 1010.5
20260507184659 18 53 6.4 9.7 0.00 0.00 0.00 48 1010.6
20260507184157 18 192 0.0 1.6 0.00 0.00 0.00 51 1010.6
20260507183653 17 301 4.8 4.8 0.00 0.00 0.00 56 1010.6
20260507183150 18 267 3.2 4.8 0.00 0.00 0.00 49 1010.8
20260507182647 17 224 1.6 1.6 0.00 0.00 0.00 54 1010.6
20260507182143 17 278 0.0 1.6 0.00 0.00 0.00 55 1010.8
20260507181639 18 302 4.8 8.0 0.00 0.00 0.00 52 1010.6
20260507181136 19 286 1.6 1.6 0.00 0.00 0.00 49 1010.8
20260507180632 18 265 1.6 1.6 0.00 0.00 0.00 50 1010.8
20260507180130 17 265 0.0 1.6 0.00 0.00 0.00 52 1011.0
20260507175625 18 295 8.0 11.3 0.00 0.00 0.00 53 1010.9
20260507175123 19 256 1.6 1.6 0.00 0.00 0.00 50 1011.1
20260507174620 18 220 4.8 8.0 0.00 0.00 0.00 53 1011.3
20260507174118 18 308 3.2 3.2 0.00 0.00 0.00 54 1011.2
20260507173615 17 232 3.2 3.2 0.00 0.00 0.00 58 1011.2
20260507173112 16 298 6.4 9.7 0.00 0.00 0.00 59 1011.2
20260507172607 16 282 1.6 3.2 0.00 0.00 0.00 61 1011.6
20260507172105 16 243 1.6 3.2 0.00 0.00 0.00 59 1011.5
20260507171600 15 282 4.8 8.0 0.00 0.00 0.00 60 1011.7
20260507171057 15 98 1.6 1.6 0.00 0.00 0.00 60 1011.7
20260507170554 15 170 4.8 4.8 0.00 0.00 0.00 61 1011.8
20260507170051 15 34 6.4 8.0 0.00 0.00 0.00 63 1012.0
20260507165547 15 294 3.2 4.8 0.00 0.00 0.00 62 1011.8
20260507165043 15 340 3.2 3.2 0.00 0.00 0.00 62 1012.0
20260507164539 15 260 1.6 3.2 0.00 0.00 0.00 60 1012.2
20260507164037 15 272 1.6 1.6 0.00 0.00 0.00 63 1012.2
20260507163534 15 272 0.0 0.0 0.00 0.00 0.00 61 1012.3
20260507163032 15 235 3.2 3.2 0.00 0.00 0.00 65 1012.4
20260507162526 15 270 0.0 0.0 0.00 0.00 0.00 66 1012.4
20260507162023 14 42 0.0 1.6 0.00 0.00 0.00 65 1012.5
20260507161520 14 255 0.0 1.6 0.00 0.00 0.00 67 1012.8
20260507161017 13 349 1.6 1.6 0.00 0.00 0.00 65 1012.9
20260507160513 13 29 9.7 12.9 0.00 0.00 0.00 66 1012.8
20260507160009 14 259 1.6 3.2 0.00 0.00 0.00 66 1013.0
20260507155504 14 235 4.8 4.8 0.00 0.00 0.00 64 1012.9
20260507155002 13 270 0.0 1.6 0.00 0.00 0.00 67 1013.0
20260507154458 15 297 3.2 3.2 0.00 0.00 0.00 66 1013.1
20260507153955 15 251 1.6 1.6 0.00 0.00 0.00 66 1013.2
20260507153452 13 285 1.6 3.2 0.00 0.00 0.00 72 1013.1
20260507152949 13 213 1.6 1.6 0.00 0.00 0.00 71 1013.2
20260507152444 12 284 1.6 1.6 0.00 0.00 0.00 69 1013.4
20260507151941 12 10 3.2 4.8 0.00 0.00 0.00 72 1013.1
20260507151437 12 270 1.6 1.6 0.00 0.00 0.00 74 1013.3
20260507150934 12 213 1.6 1.6 0.00 0.00 0.00 71 1013.5
20260507150431 12 131 4.8 4.8 0.00 0.00 0.00 73 1013.5
20260507145928 12 254 0.0 0.0 0.00 0.00 0.00 73 1013.6
20260507145423 12 153 3.2 3.2 0.00 0.00 0.00 73 1013.6
20260507144921 11 231 0.0 1.6 0.00 0.00 0.00 76 1013.6
20260507144418 12 330 4.8 4.8 0.00 0.00 0.00 73 1013.7
20260507143914 13 170 4.8 8.0 0.00 0.00 0.00 72 1013.8
20260507143412 13 262 0.0 0.0 0.00 0.00 0.00 73 1013.8
20260507142908 11 217 0.0 1.6 0.00 0.00 0.00 75 1013.9
20260507142404 11 200 0.0 1.6 0.00 0.00 0.00 78 1014.2
20260507141901 10 0 1.6 3.2 0.00 0.00 0.00 78 1014.2
20260507141357 10 354 1.6 3.2 0.00 0.00 0.00 78 1014.2
20260507140854 10 14 1.6 1.6 0.00 0.00 0.00 79 1014.3
20260507140351 10 268 0.0 0.0 0.00 0.00 0.00 79 1014.4
20260507135849 10 285 3.2 3.2 0.00 0.00 0.00 81 1014.4
20260507135345 10 356 1.6 1.6 0.00 0.00 0.00 81 1014.6
20260507134843 10 283 0.0 1.6 0.00 0.00 0.00 82 1014.6
20260507134339 10 298 1.6 1.6 0.00 0.00 0.00 83 1014.7
20260507133835 10 258 0.0 1.6 0.00 0.00 0.00 83 1014.6
20260507133331 10 278 0.0 0.0 0.00 0.00 0.00 84 1014.7
20260507132830 10 288 3.2 3.2 0.00 0.00 0.00 85 1014.7
20260507132325 10 291 0.0 1.6 0.00 0.00 0.00 85 1015.0
20260507131823 10 309 3.2 3.2 0.00 0.00 0.00 86 1014.9
20260507131319 10 272 0.0 0.0 0.00 0.00 0.00 85 1014.9
20260507130816 10 250 0.0 1.6 0.00 0.00 0.00 87 1014.9
20260507130313 10 290 0.0 0.0 0.00 0.00 0.00 87 1014.8
20260507125812 10 325 1.6 1.6 0.00 0.00 0.00 86 1015.0
20260507125309 10 46 1.6 1.6 0.00 0.00 0.00 87 1014.9
20260507124806 10 276 1.6 3.2 0.00 0.00 0.00 88 1015.1
20260507124303 10 273 0.0 0.0 0.00 0.00 0.00 89 1014.8
20260507123801 10 296 1.6 1.6 0.00 0.00 0.00 88 1014.7
20260507123258 10 257 0.0 0.0 0.00 0.00 0.00 88 1014.8
20260507122754 10 243 0.0 1.6 0.00 0.00 0.00 88 1014.6
20260507122249 10 270 0.0 0.0 0.00 0.00 0.00 88 1014.7
20260507121746 10 30 1.6 1.6 0.00 0.00 0.00 87 1014.6
20260507121241 10 267 0.0 0.0 0.00 0.00 0.00 88 1014.4
20260507120738 10 273 0.0 1.6 0.00 0.00 0.00 87 1014.5
20260507120235 10 271 0.0 0.0 0.00 0.00 0.00 88 1014.5
20260507115731 10 274 0.0 0.0 0.00 0.00 0.00 89 1014.5
20260507115227 10 272 0.0 0.0 0.00 0.00 0.00 88 1014.5
20260507114722 10 271 0.0 0.0 0.00 0.00 0.00 88 1014.5
20260507114220 10 276 0.0 1.6 0.00 0.00 0.00 87 1014.4
20260507113718 10 276 0.0 0.0 0.00 0.00 0.00 89 1013.9
20260507113214 10 279 1.6 1.6 0.00 0.00 0.00 89 1014.2
20260507112712 10 286 1.6 1.6 0.00 0.00 0.00 91 1013.9
20260507112209 10 269 0.0 0.0 0.00 0.00 0.00 91 1014.2
20260507111706 10 161 3.2 3.2 0.00 0.00 0.00 92 1013.9
20260507111203 10 275 0.0 0.0 0.00 0.00 0.00 91 1014.0
20260507110658 10 266 0.0 0.0 0.00 0.00 0.00 92 1014.2
20260507110156 10 273 0.0 0.0 0.00 0.00 0.00 91 1014.0
20260507105653 10 268 0.0 0.0 0.00 0.00 0.00 91 1013.8
20260507105148 10 253 0.0 1.6 0.00 0.00 0.00 92 1013.8
20260507104646 10 284 0.0 0.0 0.00 0.00 0.00 92 1013.8
20260507104142 10 275 1.6 1.6 0.00 0.00 0.00 91 1013.6
20260507103638 10 268 0.0 0.0 0.00 0.00 0.00 91 1013.7
20260507103135 10 271 0.0 0.0 0.00 0.00 0.00 90 1013.8
20260507102632 10 270 0.0 0.0 0.00 0.00 0.00 90 1013.7
20260507102128 10 274 0.0 0.0 0.00 0.00 0.00 90 1013.7
20260507101624 10 271 0.0 0.0 0.00 0.00 0.00 89 1013.6
20260507101120 10 273 0.0 0.0 0.00 0.00 0.00 89 1013.5
20260507100618 10 267 0.0 0.0 0.00 0.00 0.00 89 1013.5
20260507100115 10 270 0.0 0.0 0.00 0.00 0.00 89 1013.4
20260507095613 10 287 1.6 1.6 0.00 0.00 0.00 89 1013.6
20260507095109 10 274 0.0 0.0 0.00 0.00 0.00 89 1013.4
20260507094606 10 290 1.6 1.6 0.00 0.00 0.00 89 1013.4
20260507094103 10 281 0.0 0.0 0.00 0.00 0.00 89 1013.7
20260507093600 10 293 0.0 0.0 0.00 0.00 0.00 87 1013.3
20260507093059 10 259 0.0 0.0 0.00 0.00 0.00 87 1013.4
20260507092555 10 265 0.0 0.0 0.00 0.00 0.00 88 1013.3
20260507092052 10 282 1.6 1.6 0.00 0.00 0.00 87 1013.7
20260507091548 10 275 0.0 0.0 0.00 0.00 0.00 87 1013.4
20260507091045 10 281 1.6 1.6 0.00 0.00 0.00 87 1013.4
20260507090540 10 282 0.0 0.0 0.00 0.00 0.00 87 1013.6
20260507090038 10 261 0.0 0.0 0.00 0.00 0.00 87 1013.3
20260507085535 10 268 0.0 0.0 0.00 0.00 0.00 88 1013.4
20260507085031 10 273 0.0 0.0 0.00 0.00 0.00 88 1013.3
20260507084528 10 257 0.0 0.0 0.00 0.00 0.00 87 1013.1
20260507084025 10 272 0.0 0.0 0.00 0.00 0.00 88 1013.1
20260507083521 10 273 0.0 0.0 0.00 0.00 0.00 88 1013.3
20260507083018 10 310 0.0 0.0 0.00 0.00 0.00 87 1013.2
20260507082514 10 27 6.4 8.0 0.00 0.00 0.00 88 1013.3
20260507082010 10 0 1.6 3.2 0.00 0.00 0.00 89 1013.3
20260507081507 10 276 0.0 0.0 0.00 0.00 0.00 88 1013.5
20260507081004 10 329 1.6 3.2 0.00 0.00 0.00 88 1013.3
20260507080459 10 297 1.6 1.6 0.00 0.00 0.00 89 1013.5
20260507075955 10 118 1.6 3.2 0.00 0.00 0.00 89 1013.5
20260507075452 10 341 3.2 3.2 0.00 0.00 0.00 88 1013.6
20260507074948 10 298 1.6 1.6 0.00 0.00 0.00 89 1013.7
20260507074445 10 278 1.6 1.6 0.00 0.00 0.00 89 1013.6
20260507073943 10 298 0.0 1.6 0.00 0.00 0.00 89 1013.4
20260507073439 10 275 0.0 0.0 0.00 0.00 0.00 89 1013.3
20260507072936 10 337 0.0 1.6 0.00 0.00 0.00 90 1013.3
20260507072434 10 192 0.0 1.6 0.00 0.00 0.00 90 1013.3
20260507071931 10 284 1.6 1.6 0.00 0.00 0.00 91 1013.3
20260507071428 10 273 0.0 0.0 0.00 0.00 0.00 90 1013.1
20260507070924 10 271 0.0 0.0 0.00 0.00 0.00 90 1013.2
20260507070422 10 264 0.0 0.0 0.00 0.00 0.00 91 1013.0
20260507065918 10 281 0.0 1.6 0.00 0.00 0.00 90 1013.3
20260507065415 10 278 1.6 1.6 0.00 0.00 0.00 90 1013.3
20260507064912 11 282 0.0 1.6 0.00 0.00 0.00 90 1013.2
20260507064411 11 288 0.0 1.6 0.00 0.00 0.00 90 1013.2
20260507063908 11 312 1.6 3.2 0.00 0.00 0.00 90 1013.2
20260507063405 11 329 3.2 3.2 0.00 0.00 0.00 90 1013.3
20260507062902 11 12 1.6 1.6 0.00 0.00 0.00 91 1013.3
20260507062359 11 302 3.2 4.8 0.00 0.00 0.00 91 1013.3
20260507061856 11 293 1.6 1.6 0.00 0.00 0.00 91 1013.3
20260507061354 11 333 1.6 3.2 0.00 0.00 0.00 91 1013.3
20260507060853 11 302 0.0 1.6 0.00 0.00 0.00 91 1013.4
20260507060349 11 14 6.4 9.7 0.00 0.00 0.00 91 1013.2
20260507055846 11 269 0.0 0.0 0.00 0.00 0.00 92 1013.5
20260507055340 11 263 1.6 1.6 0.00 0.00 0.00 91 1013.5
20260507054838 11 277 3.2 3.2 0.00 0.00 0.00 91 1013.5
20260507054334 12 287 3.2 3.2 0.00 0.00 0.00 90 1013.8
20260507053831 12 335 3.2 4.8 0.00 0.00 0.00 90 1013.4
20260507053329 12 252 1.6 4.8 0.00 0.00 0.00 90 1013.4
20260507052827 12 33 1.6 3.2 0.00 0.00 0.00 90 1013.6
20260507052324 12 348 3.2 4.8 0.00 0.00 0.00 91 1013.5
20260507051822 12 299 0.0 1.6 0.00 0.00 0.00 90 1013.4
20260507051319 12 307 3.2 3.2 0.00 0.00 0.00 90 1013.3
20260507050815 12 257 0.0 0.0 0.00 0.00 0.00 91 1013.1
20260507050312 12 267 0.0 0.0 0.00 0.00 0.00 90 1013.0
20260507045809 12 336 3.2 4.8 0.00 0.00 0.00 89 1013.2
20260507045306 12 310 3.2 3.2 0.00 0.00 0.00 89 1013.1
20260507044802 12 245 0.0 1.6 0.00 0.00 0.00 90 1013.0
20260507044259 13 331 1.6 1.6 0.00 0.00 0.00 90 1013.0
20260507043755 13 347 4.8 4.8 0.00 0.00 0.00 89 1012.9
20260507043252 13 281 1.6 1.6 0.00 0.00 0.00 89 1012.9
20260507042748 13 264 0.0 1.6 0.00 0.00 0.00 90 1012.9
20260507042243 13 254 0.0 0.0 0.00 0.00 0.00 90 1012.7
20260507041742 13 276 1.6 1.6 0.00 0.00 0.00 90 1012.8
20260507041238 13 304 3.2 3.2 0.00 0.00 0.00 90 1012.5
20260507040735 13 334 4.8 8.0 0.00 0.00 0.00 89 1012.4
20260507040230 13 283 0.0 1.6 0.00 0.00 0.00 90 1012.5
20260507035726 13 320 3.2 4.8 0.00 0.23 0.23 90 1012.2
20260507035222 13 267 0.0 0.0 0.00 0.23 0.23 92 1012.7
20260507034720 13 270 1.6 1.6 0.00 0.23 0.23 90 1012.1
20260507034217 13 249 0.0 1.6 0.00 0.23 0.23 90 1012.1
20260507033715 14 227 0.0 1.6 0.00 0.23 0.23 89 1012.2
20260507033212 14 271 0.0 0.0 0.00 0.23 0.23 89 1013.2
20260507032710 14 298 1.6 1.6 0.00 0.23 0.23 89 1013.0
20260507032205 14 304 3.2 3.2 0.00 0.23 0.23 89 1013.2
20260507031703 14 277 0.0 1.6 0.00 0.23 0.23 88 1013.0
20260507031159 14 12 4.8 4.8 0.00 0.23 0.23 88 1013.0
20260507030655 14 8 8.0 9.7 0.00 0.23 0.23 89 1012.9
20260507030154 14 272 0.0 0.0 0.00 0.23 0.23 94 1013.3
20260507025651 14 276 1.6 1.6 0.00 0.23 0.23 93 1013.0
20260507025147 14 274 0.0 0.0 0.00 0.23 0.23 92 1012.9
20260507024646 15 300 3.2 3.2 0.00 0.23 0.23 92 1012.1
20260507024142 14 262 0.0 1.6 0.00 0.23 0.23 91 1012.1